Regional Weather Roundup
Issued by NWS Charleston, WV

Home | Current Version | Previous Version | Text Only | Print | Product List | Glossary Off
Versions: 1 2 3 4 5 6 7 8 9 10 11 12 13 14 15 16 17 18 19 20 21 22 23 24 25 26 27 28 29 30 31 32 33 34 35 36 37 38 39 40 41 42 43 44 45 46 47 48 49 50

000
ASUS41 KRLX 011010
RWRRLX
West Virginia Regional Weather Roundup
National Weather Service Charleston WV
600 AM EDT TUE SEP 01 2015

Note: "fair" indicates few or no clouds below 12,000 feet with no
significant weather and/or obstructions to visibility.

WVZ003-011100-
Northern Panhandle of West Virginia

CITY           SKY/WX    TMP DP  RH WIND       PRES   REMARKS
WHEELING       CLEAR     67  65  93 CALM      30.12R FOG
$$

WVZ009-011100-
Northwest West Virginia

CITY           SKY/WX    TMP DP  RH WIND       PRES   REMARKS
PARKERSBURG    CLEAR     66  64  93 CALM      30.14R FOG
$$

WVZ006-011100-
Western West Virginia

CITY           SKY/WX    TMP DP  RH WIND       PRES   REMARKS
HUNTINGTON     FOG       64  64 100 E3        30.12R VSB 3/4
$$

WVZ015-011100-
West Central West Virginia

CITY           SKY/WX    TMP DP  RH WIND       PRES   REMARKS
CHARLESTON     PTCLDY    65  63  93 CALM      30.13R FOG
$$

WVZ022-031-011100-
North Central West Virginia

CITY           SKY/WX    TMP DP  RH WIND       PRES   REMARKS
CLARKSBURG     FOG       65  65 100 CALM      30.13R VSB 1/2
MORGANTOWN     CLEAR     67  61  81 CALM      30.13S
$$

WVZ025-035-042-045-011100-
Southern West Virginia

CITY           SKY/WX    TMP DP  RH WIND       PRES   REMARKS
BECKLEY        CLEAR     62  59  90 CALM      30.20R
LOGAN          FOG       64  64 100 CALM      30.15S VSB<1/4
BLUEFIELD      CLEAR     65  59  81 W3        30.22S
LEWISBURG      FOG       62  60  94 CALM      30.19S VSB 1/2
$$

WVZ047-011100-
Northern Mountains of West Virginia

CITY           SKY/WX    TMP DP  RH WIND       PRES   REMARKS
ELKINS         PTCLDY    60  58  92 CALM      30.19R FOG
$$

WVZ052-011100-
Eastern Panhandle of West Virginia

CITY           SKY/WX    TMP DP  RH WIND       PRES   REMARKS
MARTINSBURG    CLEAR     63  62  97 CALM      30.07S FOG
PETERSBURG     FOG       63  63  99 CALM      30.13S VSB 1/4
$$



USA.gov is the U.S. government's official web portal to all federal, state and local government web resources and services.